EB5ETD Weather Reports


Display with metric or nautical units.
time (UTC)temp
F
wind
direction
speed
MPH
gust
MPH
rain 1hr
in
rain 24hr
in
rain mn
in
humidity
%
barometer
mb
20260504035003 57 40 0.0 1.0 0.00 0.07 0.00 98 1020.6
20260504034504 57 40 0.0 1.0 0.00 0.07 0.00 98 1020.8
20260504034004 57 40 0.0 1.0 0.00 0.07 0.00 98 1020.8
20260504033504 57 40 1.0 2.0 0.00 0.07 0.00 98 1020.9
20260504033004 57 40 0.0 1.0 0.00 0.07 0.00 98 1020.8
20260504032504 57 40 0.0 1.0 0.00 0.07 0.00 98 1021.0
20260504032004 57 40 0.0 0.0 0.00 0.07 0.00 98 1021.0
20260504031504 57 40 0.0 0.0 0.00 0.07 0.00 98 1021.2
20260504030003 57 40 1.0 3.0 0.00 0.07 0.00 98 1021.3
20260504025504 57 45 2.0 3.0 0.00 0.07 0.00 98 1021.5
20260504025004 57 43 0.0 1.0 0.00 0.07 0.00 98 1021.3
20260504024503 58 44 1.0 3.0 0.00 0.07 0.00 98 1021.3
20260504024004 58 61 1.0 2.0 0.00 0.07 0.00 98 1021.2
20260504023504 58 61 0.0 0.0 0.00 0.07 0.00 98 1021.1
20260504023004 58 61 0.0 1.0 0.00 0.07 0.00 98 1021.1
20260504022503 58 61 0.0 0.0 0.00 0.07 0.00 98 1021.4
20260504022004 58 61 0.0 0.0 0.00 0.07 0.00 98 1021.1
20260504021504 58 61 0.0 1.0 0.00 0.07 0.00 98 1021.1
20260504021004 58 61 0.0 0.0 0.00 0.07 0.00 98 1021.0
20260504020504 58 61 0.0 0.0 0.00 0.07 0.00 98 1021.1
20260504020004 58 61 0.0 1.0 0.00 0.07 0.00 98 1021.1
20260504015504 58 61 1.0 1.0 0.00 0.07 0.00 98 1021.4
20260504015003 58 61 1.0 1.0 0.00 0.07 0.00 98 1021.2
20260504014504 58 61 1.0 1.0 0.00 0.07 0.00 98 1021.1
20260504013504 58 61 0.0 1.0 0.00 0.07 0.00 98 1021.3
20260504013004 58 61 0.0 0.0 0.00 0.07 0.00 98 1021.3
20260504012504 57 61 0.0 1.0 0.00 0.07 0.00 98 1021.3
20260504012004 58 61 1.0 1.0 0.00 0.07 0.00 98 1021.3
20260504011504 58 61 0.0 0.0 0.00 0.07 0.00 98 1021.3
20260504011004 58 61 0.0 0.0 0.00 0.07 0.00 98 1021.2
20260504010504 57 61 0.0 0.0 0.00 0.07 0.00 98 1021.3
20260504010003 57 61 0.0 0.0 0.00 0.07 0.00 98 1021.3
20260504005503 57 61 0.0 0.0 0.00 0.07 0.00 98 1021.2
20260504005004 57 61 0.0 0.0 0.00 0.07 0.00 98 1021.3
20260504004504 57 61 0.0 0.0 0.00 0.07 0.00 98 1021.3
20260504004004 57 61 0.0 0.0 0.00 0.07 0.00 98 1021.3
20260504003503 57 61 0.0 0.0 0.00 0.07 0.00 98 1021.3
20260504003003 57 61 0.0 0.0 0.00 0.07 0.00 98 1021.1
20260504002503 57 61 0.0 1.0 0.00 0.07 0.00 98 1021.4
20260504002004 57 61 0.0 1.0 0.00 0.07 0.00 98 1021.5
20260504001504 57 61 1.0 2.0 0.00 0.07 0.00 98 1021.5
20260504001004 57 61 1.0 2.0 0.00 0.07 0.00 98 1021.6
20260504000504 57 61 1.0 1.0 0.00 0.07 0.00 98 1021.6
20260504000004 57 61 0.0 0.0 0.00 0.07 0.00 98 1021.7
20260503235004 57 61 0.0 2.0 0.00 0.07 0.00 98 1021.6
20260503234504 57 61 1.0 2.0 0.00 0.07 0.00 98 1021.7
20260503234004 58 61 1.0 2.0 0.00 0.07 0.00 98 1021.8
20260503233504 58 61 0.0 1.0 0.00 0.07 0.00 98 1021.7
20260503233004 58 61 0.0 1.0 0.00 0.07 0.00 98 1021.9
20260503232504 58 61 1.0 2.0 0.00 0.07 0.00 98 1021.9
20260503232004 58 61 0.0 1.0 0.00 0.07 0.00 98 1021.9
20260503231503 58 65 0.0 2.0 0.00 0.07 0.00 98 1022.0
20260503231005 58 65 1.0 2.0 0.00 0.07 0.00 98 1021.9
20260503230004 58 65 1.0 2.0 0.00 0.07 0.00 98 1021.9
20260503225503 58 65 1.0 2.0 0.00 0.07 0.00 98 1021.8
20260503225004 58 65 1.0 2.0 0.00 0.07 0.00 98 1022.1
20260503224004 57 65 1.0 2.0 0.00 0.07 0.00 98 1022.2
20260503222504 57 61 1.0 2.0 0.00 0.07 0.00 98 1022.2
20260503222003 57 61 0.0 1.0 0.00 0.07 0.00 98 1022.2
20260503221503 57 61 0.0 1.0 0.00 0.07 0.00 98 1022.4
20260503221004 57 56 1.0 2.0 0.00 0.07 0.00 98 1022.3
20260503220004 57 51 2.0 2.0 0.00 0.07 0.00 97 1022.3
20260503215504 57 46 2.0 2.0 0.00 0.07 0.07 97 1022.2
20260503215004 57 43 1.0 3.0 0.00 0.07 0.07 97 1022.3
20260503214504 57 56 2.0 3.0 0.00 0.07 0.07 97 1022.3
20260503214004 57 43 2.0 3.0 0.00 0.07 0.07 97 1022.1
20260503213504 57 42 1.0 3.0 0.00 0.07 0.07 97 1022.3
20260503212503 57 63 0.0 1.0 0.00 0.07 0.07 97 1022.5
20260503212003 57 65 1.0 5.0 0.00 0.07 0.07 97 1022.5
20260503211004 58 39 1.0 2.0 0.00 0.07 0.07 97 1022.6
20260503210004 58 41 0.0 2.0 0.00 0.07 0.07 97 1022.4
20260503205004 58 41 2.0 3.0 0.00 0.07 0.07 97 1022.2
20260503204503 58 56 0.0 1.0 0.00 0.07 0.07 97 1022.3
20260503203504 57 54 1.0 2.0 0.00 0.07 0.07 97 1022.1
20260503203003 57 55 0.0 1.0 0.00 0.07 0.07 97 1022.0
20260503202504 57 60 1.0 2.0 0.00 0.07 0.07 97 1021.9
20260503202004 57 54 0.0 1.0 0.00 0.07 0.07 97 1021.9
20260503201504 57 54 0.0 1.0 0.00 0.07 0.07 97 1022.0
20260503201004 57 54 0.0 1.0 0.00 0.07 0.07 97 1021.8
20260503200503 57 54 0.0 1.0 0.00 0.07 0.07 97 1021.7
20260503200003 57 53 1.0 1.0 0.00 0.07 0.07 97 1021.4
20260503195504 57 48 1.0 2.0 0.00 0.07 0.07 96 1021.6
20260503195005 57 44 0.0 2.0 0.00 0.07 0.07 96 1021.4
20260503194504 57 34 1.0 3.0 0.00 0.07 0.07 96 1021.2
20260503194004 57 47 1.0 2.0 0.00 0.07 0.07 96 1021.3
20260503193503 58 30 1.0 2.0 0.00 0.07 0.07 96 1021.2
20260503192503 58 54 1.0 3.0 0.00 0.07 0.07 96 1021.2
20260503192004 58 9 1.0 3.0 0.00 0.07 0.07 96 1021.1
20260503191504 58 29 2.0 5.0 0.01 0.07 0.07 96 1020.9
20260503191003 58 43 2.0 3.0 0.02 0.07 0.07 96 1020.9
20260503190004 58 5 1.0 3.0 0.06 0.07 0.07 95 1021.0
20260503185004 58 65 1.0 1.0 0.07 0.07 0.07 95 1020.6
20260503184504 58 72 1.0 2.0 0.07 0.07 0.07 95 1020.5
20260503184004 58 43 1.0 2.0 0.07 0.07 0.07 94 1020.5
20260503183504 58 49 1.0 3.0 0.07 0.07 0.07 94 1020.4
20260503183004 59 45 2.0 5.0 0.07 0.07 0.07 94 1020.4
20260503182503 59 53 1.0 5.0 0.07 0.07 0.07 93 1020.3
20260503181504 59 50 2.0 3.0 0.06 0.06 0.06 92 1020.4
20260503181004 59 43 2.0 3.0 0.05 0.05 0.05 91 1020.6
20260503180504 60 42 1.0 3.0 0.02 0.02 0.02 91 1020.7
20260503180004 60 55 1.0 2.0 0.01 0.01 0.01 90 1020.4
20260503175504 60 51 1.0 3.0 0.00 0.00 0.00 90 1020.5
20260503175003 60 37 2.0 3.0 0.00 0.00 0.00 89 1020.5
20260503173504 61 71 1.0 5.0 0.00 0.00 0.00 87 1020.0
20260503173003 61 38 3.0 7.0 0.00 0.00 0.00 86 1019.9
20260503172504 61 38 1.0 3.0 0.00 0.00 0.00 85 1020.0
20260503171503 62 32 2.0 5.0 0.00 0.00 0.00 84 1019.8
20260503171005 62 61 2.0 3.0 0.00 0.00 0.00 84 1019.7
20260503170504 62 49 2.0 5.0 0.00 0.00 0.00 83 1019.5
20260503150503 63 26 3.0 9.0 0.00 0.00 0.00 83 1019.9
20260503131004 67 55 1.0 5.0 0.00 0.00 0.00 69 1020.1
20260503130503 67 248 1.0 5.0 0.00 0.00 0.00 70 1020.3
20260503110504 66 240 0.0 2.0 0.00 0.00 0.00 73 1021.3
20260503090503 57 333 0.0 2.0 0.00 0.00 0.00 94 1024.0
20260503081504 58 44 1.0 3.0 0.00 0.00 0.00 90 1023.8
20260503081003 58 42 1.0 3.0 0.00 0.00 0.00 89 1023.8
20260503080504 59 60 1.0 3.0 0.00 0.00 0.00 89 1023.7
20260503072504 58 14 0.0 1.0 0.00 0.00 0.00 89 1023.4
20260503072004 58 36 0.0 1.0 0.00 0.00 0.00 89 1023.4
20260503071503 58 36 1.0 2.0 0.00 0.00 0.00 89 1023.4
20260503071004 58 41 1.0 2.0 0.00 0.00 0.00 89 1023.2
20260503070503 58 49 1.0 3.0 0.00 0.00 0.00 89 1023.4
20260503055004 57 41 1.0 1.0 0.00 0.00 0.00 89 1023.4
20260503054503 57 41 1.0 2.0 0.00 0.00 0.00 89 1023.1
20260503054004 57 41 0.0 1.0 0.00 0.00 0.00 90 1023.2
20260503053504 57 41 0.0 0.0 0.00 0.00 0.00 90 1023.2
20260503053005 57 41 0.0 0.0 0.00 0.00 0.00 90 1023.2
20260503052003 57 41 0.0 0.0 0.00 0.00 0.00 90 1023.1
20260503051504 57 41 0.0 1.0 0.00 0.00 0.00 90 1023.0
20260503051003 57 41 0.0 2.0 0.00 0.00 0.00 90 1023.0
20260503050504 57 42 1.0 1.0 0.00 0.00 0.00 90 1023.1
20260503050004 57 42 1.0 2.0 0.00 0.00 0.00 90 1022.9
20260503045503 57 42 1.0 2.0 0.00 0.00 0.00 90 1023.1
20260503045004 57 41 0.0 2.0 0.00 0.00 0.00 90 1023.1
20260503044503 57 41 1.0 1.0 0.00 0.00 0.00 90 1023.0
20260503044004 57 41 0.0 2.0 0.00 0.00 0.00 90 1022.9
20260503043504 57 41 0.0 1.0 0.00 0.00 0.00 91 1023.0
20260503043004 57 41 0.0 1.0 0.00 0.00 0.00 91 1022.9
20260503042004 57 41 0.0 0.0 0.00 0.00 0.00 91 1023.2
20260503041504 57 41 0.0 1.0 0.00 0.00 0.00 91 1023.1
20260503041004 57 41 0.0 0.0 0.00 0.00 0.00 91 1023.2
20260503040504 57 41 0.0 1.0 0.00 0.00 0.00 91 1023.2
20260503040004 57 41 0.0 1.0 0.00 0.00 0.00 91 1023.3